Time,TemperatureF,DewpointF,PressureIn,WindDirection,WindDirectionDegrees,WindSpeedMPH,WindSpeedGustMPH,Humidity,HourlyPrecipIn,Conditions,Clouds,dailyrainin,SoftwareType,DateUTC
2013-07-26 00:00:00,58.1,57.5,29.98,NNE,30,1.0,7.0,98,0.00,,,0.59,Wunderground PWS Mod,2013-07-26 04:00:00,
2013-07-26 00:01:00,58.1,57.5,29.98,NNE,30,1.0,7.0,98,0.00,,,0.59,Wunderground PWS Mod,2013-07-26 04:01:00,
2013-07-26 00:02:00,58.2,57.6,29.98,NNE,22,1.0,7.0,98,0.00,,,0.59,Wunderground PWS Mod,2013-07-26 04:02:00,
2013-07-26 00:03:00,58.2,57.6,29.98,NNE,13,1.0,7.0,98,0.00,,,0.00,Wunderground PWS Mod,2013-07-26 04:03:00,
2013-07-26 00:09:00,58.2,57.6,29.97,NE,40,1.0,7.0,98,0.00,,,0.00,Wunderground PWS Mod,2013-07-26 04:09:00,
2013-07-26 00:14:00,58.2,57.6,29.97,NNE,30,1.0,7.0,98,0.00,,,0.00,Wunderground PWS Mod,2013-07-26 04:14:00,
2013-07-26 00:20:00,58.3,57.7,29.98,North,355,1.0,7.0,98,0.00,,,0.00,Wunderground PWS Mod,2013-07-26 04:20:00,
2013-07-26 00:26:00,58.4,57.8,29.98,North,349,0.0,7.0,98,0.00,,,0.00,Wunderground PWS Mod,2013-07-26 04:26:00,
2013-07-26 00:31:00,58.4,57.8,29.98,NNE,16,0.0,7.0,98,0.00,,,0.01,Wunderground PWS Mod,2013-07-26 04:31:00,
2013-07-26 00:36:00,58.5,57.9,29.98,NNE,25,1.0,7.0,98,0.00,,,0.01,Wunderground PWS Mod,2013-07-26 04:36:00,
2013-07-26 00:41:00,58.5,57.9,29.98,NE,34,1.0,7.0,98,0.00,,,0.01,Wunderground PWS Mod,2013-07-26 04:41:00,
2013-07-26 00:47:00,58.6,58.0,29.98,NNE,14,1.0,7.0,98,0.00,,,0.01,Wunderground PWS Mod,2013-07-26 04:47:00,
2013-07-26 00:52:00,58.6,58.0,29.98,NNE,23,1.0,7.0,98,0.00,,,0.02,Wunderground PWS Mod,2013-07-26 04:52:00,
2013-07-26 00:57:00,58.7,58.1,29.97,NNE,19,2.0,7.0,98,0.00,,,0.02,Wunderground PWS Mod,2013-07-26 04:57:00,
2013-07-26 01:03:00,58.7,58.1,29.97,NNE,13,1.0,7.0,98,0.00,,,0.02,Wunderground PWS Mod,2013-07-26 05:03:00,
2013-07-26 01:08:00,58.8,58.2,29.97,North,5,1.0,7.0,98,0.00,,,0.02,Wunderground PWS Mod,2013-07-26 05:08:00,
2013-07-26 01:13:00,58.8,58.2,29.97,NNE,32,1.0,7.0,98,0.00,,,0.03,Wunderground PWS Mod,2013-07-26 05:13:00,
2013-07-26 01:19:00,58.8,58.2,29.96,NNW,336,1.0,7.0,98,0.00,,,0.03,Wunderground PWS Mod,2013-07-26 05:19:00,
2013-07-26 01:24:00,58.9,58.3,29.96,North,355,1.0,7.0,98,0.00,,,0.03,Wunderground PWS Mod,2013-07-26 05:24:00,
2013-07-26 01:30:00,58.9,58.3,29.96,NE,40,1.0,7.0,98,0.00,,,0.03,Wunderground PWS Mod,2013-07-26 05:30:00,
2013-07-26 01:36:00,58.9,58.3,29.96,NNE,26,1.0,7.0,98,0.00,,,0.03,Wunderground PWS Mod,2013-07-26 05:36:00,
2013-07-26 01:41:00,58.9,58.3,29.96,North,5,0.0,7.0,98,0.00,,,0.03,Wunderground PWS Mod,2013-07-26 05:41:00,
2013-07-26 01:47:00,58.9,58.3,29.96,NNW,328,1.0,7.0,98,0.00,,,0.03,Wunderground PWS Mod,2013-07-26 05:47:00,
2013-07-26 01:52:00,59.0,58.4,29.96,NNE,33,1.0,7.0,98,0.00,,,0.03,Wunderground PWS Mod,2013-07-26 05:52:00,
2013-07-26 01:57:00,59.0,58.4,29.96,North,10,1.0,7.0,98,0.00,,,0.03,Wunderground PWS Mod,2013-07-26 05:57:00,
2013-07-26 02:03:00,59.1,58.5,29.95,NE,40,0.0,7.0,98,0.00,,,0.03,Wunderground PWS Mod,2013-07-26 06:03:00,
2013-07-26 02:08:00,59.1,58.5,29.95,NNE,29,0.0,7.0,98,0.00,,,0.03,Wunderground PWS Mod,2013-07-26 06:08:00,
2013-07-26 02:13:00,59.1,58.5,29.95,North,360,1.0,7.0,98,0.00,,,0.03,Wunderground PWS Mod,2013-07-26 06:13:00,
2013-07-26 02:18:00,59.1,58.5,29.95,NNW,334,1.0,7.0,98,0.00,,,0.03,Wunderground PWS Mod,2013-07-26 06:18:00,
2013-07-26 02:23:00,59.2,58.6,29.95,NNE,21,1.0,7.0,98,0.00,,,0.03,Wunderground PWS Mod,2013-07-26 06:23:00,
2013-07-26 02:28:00,59.2,58.6,29.95,NNE,32,2.0,7.0,98,0.00,,,0.03,Wunderground PWS Mod,2013-07-26 06:28:00,
2013-07-26 02:34:00,59.2,58.6,29.94,NE,34,2.0,7.0,98,0.00,,,0.03,Wunderground PWS Mod,2013-07-26 06:34:00,
2013-07-26 02:40:00,59.2,58.6,29.94,North,5,2.0,7.0,98,0.00,,,0.03,Wunderground PWS Mod,2013-07-26 06:40:00,
2013-07-26 02:45:00,59.3,58.7,29.94,NNE,27,1.0,7.0,98,0.00,,,0.03,Wunderground PWS Mod,2013-07-26 06:45:00,
2013-07-26 02:51:00,59.3,58.7,29.94,NNW,339,1.0,7.0,98,0.00,,,0.04,Wunderground PWS Mod,2013-07-26 06:51:00,
2013-07-26 02:56:00,59.3,58.7,29.94,ENE,59,1.0,7.0,98,0.00,,,0.04,Wunderground PWS Mod,2013-07-26 06:56:00,
2013-07-26 03:01:00,59.3,58.7,29.94,NE,34,1.0,7.0,98,0.00,,,0.04,Wunderground PWS Mod,2013-07-26 07:01:00,
2013-07-26 03:06:00,59.3,58.7,29.94,NE,41,1.0,7.0,98,0.00,,,0.04,Wunderground PWS Mod,2013-07-26 07:06:00,
2013-07-26 03:12:00,59.3,58.7,29.94,East,88,1.0,7.0,98,0.00,,,0.04,Wunderground PWS Mod,2013-07-26 07:12:00,
2013-07-26 03:17:00,59.4,58.8,29.94,North,360,1.0,7.0,98,0.00,,,0.04,Wunderground PWS Mod,2013-07-26 07:17:00,
2013-07-26 03:22:00,59.4,58.8,29.94,North,351,0.0,7.0,98,0.00,,,0.04,Wunderground PWS Mod,2013-07-26 07:22:00,
2013-07-26 03:27:00,59.4,58.8,29.94,North,360,1.0,7.0,98,0.00,,,0.05,Wunderground PWS Mod,2013-07-26 07:27:00,
2013-07-26 03:33:00,59.4,58.8,29.94,NNW,337,0.0,7.0,98,0.00,,,0.05,Wunderground PWS Mod,2013-07-26 07:33:00,
2013-07-26 03:38:00,59.4,58.8,29.93,NNE,22,0.0,7.0,98,0.00,,,0.05,Wunderground PWS Mod,2013-07-26 07:38:00,
2013-07-26 03:43:00,59.4,58.8,29.93,NNE,22,1.0,7.0,98,0.00,,,0.05,Wunderground PWS Mod,2013-07-26 07:43:00,
2013-07-26 03:49:00,59.4,58.8,29.93,NNW,347,1.0,7.0,98,0.00,,,0.05,Wunderground PWS Mod,2013-07-26 07:49:00,
2013-07-26 03:54:00,59.4,58.8,29.93,NNE,26,1.0,7.0,98,0.00,,,0.06,Wunderground PWS Mod,2013-07-26 07:54:00,
2013-07-26 04:00:00,59.4,58.8,29.93,North,5,2.0,7.0,98,0.00,,,0.06,Wunderground PWS Mod,2013-07-26 08:00:00,
2013-07-26 04:05:00,59.4,58.8,29.92,NE,55,2.0,12.0,98,0.08,,,0.07,Wunderground PWS Mod,2013-07-26 08:05:00,
2013-07-26 04:11:00,59.5,58.9,29.92,NE,44,1.0,12.0,98,0.06,,,0.07,Wunderground PWS Mod,2013-07-26 08:11:00,
2013-07-26 04:17:00,59.5,58.9,29.92,North,11,1.0,12.0,98,0.05,,,0.08,Wunderground PWS Mod,2013-07-26 08:17:00,
2013-07-26 04:22:00,59.5,58.9,29.92,North,5,1.0,12.0,98,0.07,,,0.09,Wunderground PWS Mod,2013-07-26 08:22:00,
2013-07-26 04:27:00,59.5,58.9,29.92,NNE,13,1.0,12.0,98,0.07,,,0.09,Wunderground PWS Mod,2013-07-26 08:27:00,
2013-07-26 04:33:00,59.5,58.9,29.92,North,349,1.0,12.0,98,0.05,,,0.09,Wunderground PWS Mod,2013-07-26 08:33:00,
2013-07-26 04:38:00,59.5,58.9,29.92,NNW,342,1.0,12.0,98,0.04,,,0.09,Wunderground PWS Mod,2013-07-26 08:38:00,
2013-07-26 04:44:00,59.5,58.9,29.92,NE,36,2.0,12.0,98,0.00,,,0.09,Wunderground PWS Mod,2013-07-26 08:44:00,
2013-07-26 04:50:00,59.6,59.0,29.93,NE,45,1.0,12.0,98,0.00,,,0.09,Wunderground PWS Mod,2013-07-26 08:50:00,
2013-07-26 04:56:00,59.6,59.0,29.93,NNW,335,1.0,12.0,98,0.00,,,0.10,Wunderground PWS Mod,2013-07-26 08:56:00,
2013-07-26 05:01:00,59.7,59.1,29.93,NNE,19,1.0,12.0,98,0.00,,,0.10,Wunderground PWS Mod,2013-07-26 09:01:00,
2013-07-26 05:06:00,59.7,59.1,29.93,North,350,1.0,12.0,98,0.00,,,0.10,Wunderground PWS Mod,2013-07-26 09:06:00,
2013-07-26 05:12:00,59.7,59.1,29.93,NNW,337,0.0,12.0,98,0.00,,,0.10,Wunderground PWS Mod,2013-07-26 09:12:00,
2013-07-26 05:17:00,59.7,59.1,29.93,NNE,24,1.0,12.0,98,0.00,,,0.11,Wunderground PWS Mod,2013-07-26 09:17:00,
2013-07-26 05:22:00,59.8,59.2,29.93,North,355,1.0,12.0,98,0.00,,,0.11,Wunderground PWS Mod,2013-07-26 09:22:00,
2013-07-26 05:28:00,59.8,59.2,29.93,North,355,1.0,12.0,98,0.00,,,0.11,Wunderground PWS Mod,2013-07-26 09:28:00,
2013-07-26 05:34:00,59.8,59.2,29.93,NNE,24,1.0,12.0,98,0.00,,,0.11,Wunderground PWS Mod,2013-07-26 09:34:00,
2013-07-26 05:40:00,59.8,59.2,29.92,NNE,13,1.0,12.0,98,0.00,,,0.11,Wunderground PWS Mod,2013-07-26 09:40:00,
2013-07-26 05:45:00,59.8,59.2,29.92,NNE,33,2.0,12.0,98,0.00,,,0.12,Wunderground PWS Mod,2013-07-26 09:45:00,
2013-07-26 05:51:00,59.8,59.2,29.92,North,5,1.0,12.0,98,0.00,,,0.12,Wunderground PWS Mod,2013-07-26 09:51:00,
2013-07-26 05:56:00,59.8,59.2,29.92,NNE,22,1.0,12.0,98,0.00,,,0.12,Wunderground PWS Mod,2013-07-26 09:56:00,
2013-07-26 06:02:00,59.8,59.2,29.92,WNW,297,1.0,12.0,98,0.00,,,0.12,Wunderground PWS Mod,2013-07-26 10:02:00,
2013-07-26 06:07:00,59.8,59.2,29.92,NNE,15,1.0,12.0,98,0.00,,,0.12,Wunderground PWS Mod,2013-07-26 10:07:00,
2013-07-26 06:12:00,59.8,59.2,29.92,North,355,1.0,12.0,98,0.00,,,0.12,Wunderground PWS Mod,2013-07-26 10:12:00,
2013-07-26 06:18:00,59.8,59.2,29.92,NNE,13,2.0,12.0,98,0.00,,,0.12,Wunderground PWS Mod,2013-07-26 10:18:00,
2013-07-26 06:24:00,59.9,59.3,29.92,NNE,17,2.0,12.0,98,0.00,,,0.12,Wunderground PWS Mod,2013-07-26 10:24:00,
2013-07-26 06:30:00,59.9,59.3,29.92,NNE,15,1.0,12.0,98,0.00,,,0.12,Wunderground PWS Mod,2013-07-26 10:30:00,
2013-07-26 06:37:00,59.9,59.3,29.92,North,9,2.0,12.0,98,0.00,,,0.12,Wunderground PWS Mod,2013-07-26 10:37:00,
2013-07-26 06:42:00,60.0,59.4,29.93,NNE,16,2.0,12.0,98,0.00,,,0.12,Wunderground PWS Mod,2013-07-26 10:42:00,
2013-07-26 06:47:00,60.0,59.4,29.92,NNE,22,1.0,12.0,98,0.00,,,0.12,Wunderground PWS Mod,2013-07-26 10:47:00,
2013-07-26 06:53:00,60.1,59.5,29.92,North,355,2.0,12.0,98,0.00,,,0.12,Wunderground PWS Mod,2013-07-26 10:53:00,
2013-07-26 07:02:00,60.1,59.5,29.92,North,355,1.0,12.0,98,0.00,,,0.12,Wunderground PWS Mod,2013-07-26 11:02:00,
2013-07-26 07:07:00,60.2,59.6,29.92,NNE,20,1.0,12.0,98,0.00,,,0.12,Wunderground PWS Mod,2013-07-26 11:07:00,
2013-07-26 07:13:00,60.3,59.7,29.92,NNE,15,2.0,12.0,98,0.00,,,0.12,Wunderground PWS Mod,2013-07-26 11:13:00,
2013-07-26 07:14:00,60.3,59.7,29.92,North,360,2.0,12.0,98,0.00,,,0.12,Wunderground PWS Mod,2013-07-26 11:14:00,
2013-07-26 07:20:00,60.4,59.8,29.92,NNW,345,1.0,12.0,98,0.00,,,0.12,Wunderground PWS Mod,2013-07-26 11:20:00,
2013-07-26 10:44:00,64.1,62.3,29.93,North,355,2.0,14.0,94,0.00,,,0.12,Wunderground PWS Mod,2013-07-26 14:44:00,